When you browse on this site, cookies collect data to enhance your experience and personalize the content and advertising you see.
Visit our Privacy Policy to learn more. By continuing to use the site, you agree to this use of cookies and data.
  • In United Kingdom
  • List of Countries
  • For 7 days
  • Water Temperature
  • Weather Map
  • Weather Widgets
  • user-avatar
    Login

    Hourly Weather Kembé

    Today, 23 September, Monday

    Time Temperature Precipitation Wind Pressure Humidity
    00:00 +21°C° 0 mm 0 mps 712 mmHg 94%
    01:00 +21°C° 0 mm 0 mps 712 mmHg 94%
    02:00 +21°C° 0 mm 0 mps 712 mmHg 95%
    03:00 +20°C° 0 mm 0 mps 712 mmHg 95%
    04:00 +22°C° 0 mm 1 mps 712 mmHg 95%
    05:00 +21°C° 0 mm 0 mps 712 mmHg 93%
    06:00 +23°C° 0 mm 0 mps 713 mmHg 91%
    07:00 +24°C° 0 mm 0 mps 713 mmHg 88%
    08:00 +27°C° 0 mm 0 mps 713 mmHg 77%
    09:00 +31°C° 0 mm 1 mps 713 mmHg 67%
    10:00 +33°C° 0 mm 1 mps 714 mmHg 56%
    11:00 +33°C° 0.1 mm 1 mps 713 mmHg 55%
    12:00 +34°C° 0.1 mm 1 mps 712 mmHg 54%
    13:00 +34°C° 0.1 mm 1 mps 711 mmHg 54%
    14:00 +34°C° 0.1 mm 2 mps 711 mmHg 58%
    15:00 +32°C° 0.1 mm 2 mps 710 mmHg 63%
    16:00 +31°C° 0.1 mm 2 mps 710 mmHg 68%
    17:00 +29°C° 0.2 mm 2 mps 710 mmHg 75%
    18:00 +27°C° 0.2 mm 1 mps 711 mmHg 82%
    19:00 +25°C° 0.2 mm 1 mps 711 mmHg 88%
    20:00 +25°C° 0.6 mm 1 mps 711 mmHg 90%
    21:00 +22°C° 0.6 mm 0 mps 712 mmHg 92%
    22:00 +22°C° 0.6 mm 0 mps 712 mmHg 94%
    23:00 +21°C° 0.1 mm 0 mps 711 mmHg 94%

    Tomorrow, 24 September, Tuesday

    Time Temperature Precipitation Wind Pressure Humidity
    00:00 +21°C° 0.1 mm 0 mps 711 mmHg 94%
    01:00 +21°C° 0.1 mm 0 mps 711 mmHg 94%
    02:00 +21°C° 0.2 mm 0 mps 711 mmHg 94%
    03:00 +21°C° 0.2 mm 0 mps 711 mmHg 95%
    04:00 +21°C° 0.2 mm 0 mps 712 mmHg 96%
    05:00 +22°C° 0.1 mm 0 mps 712 mmHg 94%
    06:00 +23°C° 0.1 mm 0 mps 713 mmHg 93%
    07:00 +24°C° 0.1 mm 0 mps 713 mmHg 91%
    08:00 +26°C° 0.2 mm 0 mps 713 mmHg 80%
    09:00 +29°C° 0.2 mm 0 mps 713 mmHg 69%
    10:00 +32°C° 0.2 mm 0 mps 713 mmHg 58%
    11:00 +34°C° 0.5 mm 1 mps 712 mmHg 56%
    12:00 +34°C° 0.5 mm 1 mps 711 mmHg 53%
    13:00 +35°C° 0.5 mm 2 mps 711 mmHg 51%
    14:00 +34°C° 0.3 mm 2 mps 710 mmHg 57%
    15:00 +32°C° 0.3 mm 2 mps 710 mmHg 63%
    16:00 +31°C° 0.3 mm 2 mps 710 mmHg 69%
    17:00 +29°C° 0.2 mm 2 mps 710 mmHg 77%
    18:00 +27°C° 0.2 mm 1 mps 710 mmHg 84%
    19:00 +25°C° 0.2 mm 1 mps 710 mmHg 92%
    20:00 +25°C° 0.5 mm 1 mps 710 mmHg 93%
    21:00 +24°C° 0.5 mm 1 mps 710 mmHg 94%
    22:00 +24°C° 0.5 mm 1 mps 710 mmHg 95%
    23:00 +23°C° 0.2 mm 1 mps 710 mmHg 95%

    Day after tomorrow, 25 September, Wednesday

    Time Temperature Precipitation Wind Pressure Humidity
    00:00 +23°C° 0.2 mm 1 mps 710 mmHg 95%
    01:00 +23°C° 0.2 mm 1 mps 710 mmHg 95%
    02:00 +23°C° 0.2 mm 1 mps 710 mmHg 95%
    03:00 +21°C° 0.2 mm 0 mps 710 mmHg 95%
    04:00 +21°C° 0.2 mm 0 mps 711 mmHg 95%
    05:00 +21°C° 0 mm 0 mps 711 mmHg 94%
    06:00 +24°C° 0 mm 1 mps 712 mmHg 92%
    07:00 +25°C° 0 mm 1 mps 712 mmHg 91%
    08:00 +27°C° 1 mm 1 mps 713 mmHg 85%
    09:00 +28°C° 1 mm 1 mps 713 mmHg 80%
    10:00 +30°C° 1 mm 1 mps 713 mmHg 75%
    11:00 +30°C° 0.8 mm 2 mps 712 mmHg 72%
    12:00 +30°C° 0.8 mm 2 mps 712 mmHg 70%
    13:00 +30°C° 0.8 mm 2 mps 711 mmHg 68%
    14:00 +30°C° 0.2 mm 2 mps 711 mmHg 73%
    15:00 +29°C° 0.2 mm 1 mps 711 mmHg 77%
    16:00 +28°C° 0.2 mm 1 mps 710 mmHg 82%
    17:00 +26°C° 0.5 mm 1 mps 711 mmHg 86%
    18:00 +25°C° 0.5 mm 1 mps 711 mmHg 91%
    19:00 +24°C° 0.5 mm 1 mps 712 mmHg 95%
    20:00 +23°C° 0 mm 1 mps 712 mmHg 96%
    21:00 +23°C° 0 mm 1 mps 712 mmHg 97%
    22:00 +23°C° 0 mm 1 mps 712 mmHg 98%
    23:00 +22°C° 0 mm 1 mps 712 mmHg 98%

    26 September, Thursday

    Time Temperature Precipitation Wind Pressure Humidity
    00:00 +22°C° 0 mm 1 mps 711 mmHg 98%
    01:00 +22°C° 0 mm 1 mps 711 mmHg 97%
    02:00 +22°C° 0 mm 1 mps 711 mmHg 97%
    03:00 +22°C° 0 mm 1 mps 711 mmHg 96%
    04:00 +23°C° 0 mm 1 mps 712 mmHg 96%
    05:00 +23°C° 0 mm 1 mps 712 mmHg 95%
    06:00 +23°C° 0 mm 1 mps 713 mmHg 94%
    07:00 +23°C° 0 mm 1 mps 714 mmHg 94%
    08:00 +25°C° 0 mm 1 mps 714 mmHg 85%
    09:00 +27°C° 0 mm 1 mps 714 mmHg 76%
    10:00 +29°C° 0 mm 1 mps 715 mmHg 68%
    11:00 +29°C° 0.2 mm 1 mps 714 mmHg 66%
    12:00 +30°C° 0.2 mm 2 mps 713 mmHg 65%
    13:00 +30°C° 0.2 mm 2 mps 712 mmHg 64%
    14:00 +29°C° 0.7 mm 2 mps 711 mmHg 71%
    15:00 +28°C° 0.7 mm 2 mps 711 mmHg 78%
    16:00 +27°C° 0.7 mm 2 mps 711 mmHg 85%
    17:00 +26°C° 0.3 mm 2 mps 711 mmHg 89%
    18:00 +25°C° 0.3 mm 1 mps 712 mmHg 93%
    19:00 +24°C° 0.3 mm 1 mps 712 mmHg 97%
    20:00 +23°C° 0 mm 1 mps 712 mmHg 97%
    21:00 +23°C° 0 mm 1 mps 713 mmHg 97%
    22:00 +21°C° 0 mm 0 mps 713 mmHg 98%
    23:00 +22°C° 0 mm 1 mps 713 mmHg 98%

    27 September, Friday

    Time Temperature Precipitation Wind Pressure Humidity
    00:00 +22°C° 0 mm 1 mps 712 mmHg 98%
    01:00 +22°C° 0 mm 1 mps 712 mmHg 98%
    02:00 +22°C° 0 mm 1 mps 712 mmHg 98%
    03:00 +22°C° 0 mm 1 mps 712 mmHg 97%
    04:00 +22°C° 0 mm 1 mps 712 mmHg 97%
    05:00 +23°C° 0 mm 1 mps 713 mmHg 96%
    06:00 +23°C° 0 mm 1 mps 713 mmHg 95%
    07:00 +24°C° 0 mm 1 mps 714 mmHg 94%
    08:00 +25°C° 1.1 mm 1 mps 714 mmHg 92%
    09:00 +26°C° 1.1 mm 2 mps 714 mmHg 90%
    10:00 +27°C° 1.1 mm 2 mps 714 mmHg 88%
    11:00 +27°C° 1.1 mm 2 mps 713 mmHg 85%
    12:00 +27°C° 1.1 mm 3 mps 712 mmHg 83%
    13:00 +28°C° 1.1 mm 3 mps 711 mmHg 80%
    14:00 +28°C° 0.4 mm 3 mps 711 mmHg 81%
    15:00 +28°C° 0.4 mm 2 mps 711 mmHg 81%
    16:00 +27°C° 0.4 mm 2 mps 711 mmHg 81%
    17:00 +26°C° 0.8 mm 2 mps 711 mmHg 86%
    18:00 +24°C° 0.8 mm 1 mps 711 mmHg 91%
    19:00 +23°C° 0.8 mm 1 mps 712 mmHg 96%
    20:00 +23°C° 0 mm 1 mps 712 mmHg 96%
    21:00 +22°C° 0 mm 1 mps 712 mmHg 96%
    22:00 +20°C° 0 mm 0 mps 712 mmHg 96%
    23:00 +20°C° 0 mm 0 mps 712 mmHg 96%

    28 September, Saturday

    Time Temperature Precipitation Wind Pressure Humidity
    00:00 +19°C° 0 mm 0 mps 712 mmHg 96%
    01:00 +21°C° 0 mm 1 mps 711 mmHg 96%
    02:00 +21°C° 0 mm 1 mps 711 mmHg 96%
    03:00 +21°C° 0 mm 1 mps 711 mmHg 96%
    04:00 +21°C° 0 mm 1 mps 712 mmHg 96%
    05:00 +20°C° 0 mm 0 mps 712 mmHg 95%
    06:00 +21°C° 0 mm 0 mps 713 mmHg 94%
    07:00 +21°C° 0 mm 0 mps 713 mmHg 92%
    08:00 +23°C° 0 mm 0 mps 713 mmHg 84%
    09:00 +27°C° 0 mm 1 mps 713 mmHg 75%
    10:00 +29°C° 0 mm 1 mps 713 mmHg 67%
    11:00 +29°C° 0.4 mm 1 mps 712 mmHg 66%
    12:00 +30°C° 0.4 mm 1 mps 711 mmHg 65%
    13:00 +31°C° 0.4 mm 2 mps 710 mmHg 65%
    14:00 +30°C° 0.5 mm 1 mps 710 mmHg 70%
    15:00 +29°C° 0.5 mm 1 mps 710 mmHg 76%
    16:00 +28°C° 0.5 mm 1 mps 710 mmHg 82%
    17:00 +27°C° 0.5 mm 1 mps 710 mmHg 86%
    18:00 +25°C° 0.5 mm 1 mps 710 mmHg 91%
    19:00 +24°C° 0.5 mm 1 mps 711 mmHg 95%
    20:00 +23°C° 0.2 mm 1 mps 711 mmHg 96%
    21:00 +23°C° 0.2 mm 1 mps 711 mmHg 97%
    22:00 +23°C° 0.2 mm 1 mps 712 mmHg 97%
    23:00 +22°C° 0 mm 1 mps 712 mmHg 98%
    Show more